Hourly Weather Rurrenabaque

Today, 18 April, Sunday

Time Temperature Precipitation Wind Pressure Humidity
00:00 +22°C° 0 mm 0 mps 737 mmHg 99%
01:00 +22°C° 0 mm 0 mps 736 mmHg 99%
02:00 +21°C° 0 mm 0 mps 736 mmHg 99%
03:00 +21°C° 0 mm 0 mps 736 mmHg 99%
04:00 +21°C° 0 mm 0 mps 736 mmHg 99%
05:00 +22°C° 0 mm 0 mps 736 mmHg 98%
06:00 +22°C° 0 mm 0 mps 737 mmHg 97%
07:00 +23°C° 0 mm 0 mps 738 mmHg 97%
08:00 +25°C° 0 mm 0 mps 738 mmHg 84%
09:00 +28°C° 0 mm 0 mps 738 mmHg 72%
10:00 +32°C° 0 mm 1 mps 738 mmHg 60%
11:00 +32°C° 0.2 mm 1 mps 737 mmHg 61%
12:00 +32°C° 0.2 mm 1 mps 736 mmHg 63%
13:00 +32°C° 0.2 mm 1 mps 735 mmHg 65%
14:00 +31°C° 0.4 mm 1 mps 734 mmHg 72%
15:00 +28°C° 0.4 mm 0 mps 734 mmHg 79%
16:00 +26°C° 0.4 mm 0 mps 734 mmHg 87%
17:00 +25°C° 0.3 mm 0 mps 734 mmHg 90%
18:00 +25°C° 0.3 mm 0 mps 735 mmHg 93%
19:00 +24°C° 0.3 mm 0 mps 735 mmHg 96%
20:00 +23°C° 1.1 mm 0 mps 736 mmHg 96%
21:00 +23°C° 1.1 mm 0 mps 736 mmHg 97%
22:00 +23°C° 1.1 mm 0 mps 737 mmHg 97%
23:00 +23°C° 0.3 mm 0 mps 737 mmHg 98%

Tomorrow, 19 April, Monday

Time Temperature Precipitation Wind Pressure Humidity
00:00 +23°C° 0.3 mm 0 mps 737 mmHg 98%
01:00 +23°C° 0.3 mm 0 mps 736 mmHg 98%
02:00 +22°C° 1.2 mm 0 mps 736 mmHg 98%
03:00 +22°C° 1.2 mm 0 mps 736 mmHg 99%
04:00 +22°C° 1.2 mm 0 mps 736 mmHg 99%
05:00 +22°C° 0.4 mm 0 mps 737 mmHg 99%
06:00 +22°C° 0.4 mm 0 mps 737 mmHg 98%
07:00 +23°C° 0.4 mm 0 mps 738 mmHg 98%
08:00 +25°C° 0 mm 0 mps 738 mmHg 87%
09:00 +27°C° 0 mm 0 mps 738 mmHg 77%
10:00 +31°C° 0 mm 1 mps 738 mmHg 67%
11:00 +29°C° 0.8 mm 0 mps 737 mmHg 74%
12:00 +28°C° 0.8 mm 0 mps 736 mmHg 81%
13:00 +28°C° 0.8 mm 0 mps 735 mmHg 88%
14:00 +27°C° 0.8 mm 0 mps 735 mmHg 88%
15:00 +27°C° 0.8 mm 0 mps 735 mmHg 89%
16:00 +27°C° 0.8 mm 0 mps 734 mmHg 89%
17:00 +26°C° 0.1 mm 0 mps 735 mmHg 92%
18:00 +24°C° 0.1 mm 0 mps 735 mmHg 94%
19:00 +23°C° 0.1 mm 0 mps 736 mmHg 97%
20:00 +23°C° 0.4 mm 0 mps 736 mmHg 97%
21:00 +23°C° 0.4 mm 0 mps 737 mmHg 98%
22:00 +22°C° 0.4 mm 0 mps 737 mmHg 99%
23:00 +22°C° 1.3 mm 0 mps 737 mmHg 99%

Day after tomorrow, 20 April, Tuesday

Time Temperature Precipitation Wind Pressure Humidity
00:00 +22°C° 1.3 mm 0 mps 737 mmHg 99%
01:00 +21°C° 1.3 mm 0 mps 736 mmHg 99%
02:00 +21°C° 0.6 mm 0 mps 736 mmHg 99%
03:00 +21°C° 0.6 mm 0 mps 736 mmHg 99%
04:00 +21°C° 0.6 mm 0 mps 736 mmHg 99%
05:00 +21°C° 1 mm 0 mps 737 mmHg 99%
06:00 +22°C° 1 mm 0 mps 737 mmHg 99%
07:00 +22°C° 1 mm 0 mps 738 mmHg 98%
08:00 +24°C° 0.2 mm 0 mps 738 mmHg 89%
09:00 +28°C° 0.2 mm 1 mps 738 mmHg 80%
10:00 +30°C° 0.2 mm 1 mps 738 mmHg 70%
11:00 +30°C° 0.5 mm 1 mps 737 mmHg 72%
12:00 +31°C° 0.5 mm 1 mps 736 mmHg 74%
13:00 +31°C° 0.5 mm 1 mps 736 mmHg 76%
14:00 +30°C° 0.5 mm 1 mps 735 mmHg 79%
15:00 +29°C° 0.5 mm 1 mps 735 mmHg 82%
16:00 +29°C° 0.5 mm 1 mps 734 mmHg 86%
17:00 +28°C° 0.1 mm 1 mps 734 mmHg 89%
18:00 +24°C° 0.1 mm 0 mps 735 mmHg 93%
19:00 +23°C° 0.1 mm 0 mps 735 mmHg 96%
20:00 +23°C° 0.2 mm 0 mps 736 mmHg 97%
21:00 +23°C° 0.2 mm 0 mps 736 mmHg 97%
22:00 +23°C° 0.2 mm 0 mps 737 mmHg 98%
23:00 +22°C° 0.3 mm 0 mps 736 mmHg 98%

21 April, Wednesday

Time Temperature Precipitation Wind Pressure Humidity
00:00 +22°C° 0.3 mm 0 mps 736 mmHg 98%
01:00 +22°C° 0.3 mm 0 mps 736 mmHg 99%
02:00 +22°C° 0 mm 0 mps 736 mmHg 99%
03:00 +22°C° 0 mm 0 mps 736 mmHg 99%
04:00 +21°C° 0 mm 0 mps 736 mmHg 99%
05:00 +22°C° 0 mm 0 mps 736 mmHg 98%
06:00 +22°C° 0 mm 0 mps 737 mmHg 97%
07:00 +23°C° 0 mm 0 mps 737 mmHg 96%
08:00 +27°C° 0 mm 1 mps 737 mmHg 86%
09:00 +29°C° 0 mm 1 mps 737 mmHg 76%
10:00 +31°C° 0 mm 1 mps 737 mmHg 65%
11:00 +32°C° 0.1 mm 2 mps 736 mmHg 63%
12:00 +32°C° 0.1 mm 2 mps 735 mmHg 60%
13:00 +34°C° 0.1 mm 2 mps 734 mmHg 57%
14:00 +32°C° 0.1 mm 2 mps 734 mmHg 63%
15:00 +31°C° 0.1 mm 1 mps 733 mmHg 68%
16:00 +30°C° 0.1 mm 1 mps 733 mmHg 73%
17:00 +29°C° 0 mm 1 mps 733 mmHg 79%
18:00 +27°C° 0 mm 1 mps 734 mmHg 84%
19:00 +24°C° 0 mm 0 mps 734 mmHg 89%
20:00 +24°C° 0 mm 0 mps 735 mmHg 91%
21:00 +23°C° 0 mm 0 mps 735 mmHg 93%
22:00 +23°C° 0 mm 0 mps 735 mmHg 95%
23:00 +23°C° 0 mm 0 mps 735 mmHg 95%

22 April, Thursday

Time Temperature Precipitation Wind Pressure Humidity
00:00 +23°C° 0 mm 0 mps 735 mmHg 95%
01:00 +23°C° 0 mm 0 mps 735 mmHg 96%
02:00 +22°C° 0 mm 0 mps 735 mmHg 97%
03:00 +22°C° 0 mm 0 mps 735 mmHg 98%
04:00 +22°C° 0 mm 0 mps 735 mmHg 98%
05:00 +22°C° 0 mm 0 mps 735 mmHg 96%
06:00 +23°C° 0 mm 0 mps 736 mmHg 93%
07:00 +24°C° 0 mm 0 mps 736 mmHg 90%
08:00 +28°C° 0 mm 1 mps 736 mmHg 80%
09:00 +30°C° 0 mm 1 mps 736 mmHg 71%
10:00 +32°C° 0 mm 2 mps 736 mmHg 61%
11:00 +32°C° 0.4 mm 2 mps 735 mmHg 63%
12:00 +32°C° 0.4 mm 2 mps 734 mmHg 66%
13:00 +32°C° 0.4 mm 2 mps 733 mmHg 68%
14:00 +31°C° 0.2 mm 2 mps 733 mmHg 67%
15:00 +31°C° 0.2 mm 2 mps 733 mmHg 66%
16:00 +31°C° 0.2 mm 2 mps 732 mmHg 65%
17:00 +30°C° 0 mm 2 mps 733 mmHg 71%
18:00 +28°C° 0 mm 1 mps 733 mmHg 78%
19:00 +27°C° 0 mm 1 mps 734 mmHg 85%
20:00 +26°C° 0 mm 1 mps 734 mmHg 88%
21:00 +23°C° 0 mm 0 mps 735 mmHg 91%
22:00 +23°C° 0 mm 0 mps 735 mmHg 94%
23:00 +22°C° 0.1 mm 0 mps 735 mmHg 95%

23 April, Friday

Time Temperature Precipitation Wind Pressure Humidity
00:00 +22°C° 0.1 mm 0 mps 735 mmHg 96%
01:00 +22°C° 0.1 mm 0 mps 735 mmHg 97%
02:00 +22°C° 0 mm 0 mps 735 mmHg 98%
03:00 +22°C° 0 mm 0 mps 734 mmHg 98%
04:00 +21°C° 0 mm 0 mps 734 mmHg 99%
05:00 +22°C° 0.1 mm 0 mps 735 mmHg 96%
06:00 +23°C° 0.1 mm 0 mps 736 mmHg 94%
07:00 +23°C° 0.1 mm 0 mps 736 mmHg 92%
08:00 +27°C° 0 mm 1 mps 736 mmHg 82%
09:00 +29°C° 0 mm 1 mps 736 mmHg 73%
10:00 +31°C° 0 mm 2 mps 736 mmHg 64%
11:00 +32°C° 0.1 mm 2 mps 735 mmHg 60%
12:00 +34°C° 0.1 mm 3 mps 734 mmHg 56%
13:00 +35°C° 0.1 mm 3 mps 733 mmHg 52%
14:00 +33°C° 0 mm 3 mps 733 mmHg 58%
15:00 +31°C° 0 mm 3 mps 733 mmHg 63%
16:00 +30°C° 0 mm 3 mps 732 mmHg 69%
17:00 +28°C° 0 mm 2 mps 733 mmHg 74%
18:00 +27°C° 0 mm 1 mps 733 mmHg 79%
19:00 +26°C° 0 mm 1 mps 734 mmHg 84%
20:00 +26°C° 0 mm 1 mps 734 mmHg 87%
21:00 +23°C° 0 mm 0 mps 734 mmHg 90%
22:00 +23°C° 0 mm 0 mps 735 mmHg 93%
23:00 +22°C° 0 mm 0 mps 735 mmHg 94%
Show more